Location: *
(45.4590°N, 16.3650°E)
Time: 09:31:06
(UTC+00:00)

USA 267 - Pass Details

Date: 17 January 2020
Orbit: 1099 x 1108 km, 123.0° (Epoch: 10 February)

Event Time Altitude Azimuth Distance (km) Brightness Sun altitude
Exits shadow 18:20:29 31° 18° (NNE) 1,840 4.2 -27.8°
Maximum altitude 18:21:30 32° 1° (N) 1,789 4.3 -27.9°
Drops below altitude 10° 18:27:08 10° 302° (WNW) 2,965 6.2 -28.9°
Sets 18:29:53 0° 293° (WNW) 3,924 7.1 -29.4°
